Content
SEND FEEDBACK

Daily
Averages
Monthly
Summary
United States of America

ST. LOUIS, MISSOURI


Home > North America > United States > Missouri
Elevation: 535 feet     Latitude: 38 45N     Longitude: 090 22W

WEATHER
 
SELECT A DAY
Number of Records: 196,318;   Date Range: 1/1/95 - 7/23/14
 
SHARE

PRINT THIS DATA

[ ← Previous Day ]
WEATHER ALMANAC - APRIL 16, 2013
[ Next Day → ]
[ °C ]   °F
Weather ElementAverageHighLow
Temperature47.4 °F50 °F (12:54 am)44.6 °F (10:29 am)
Dewpoint44 °F46 °F (12:54 am)42.1 °F (9:54 am)
Humidity87.9 %93 % (3:35 am)83 % (1:54 am)
Barometer30.08 in30.16 in (9:54 pm)29.95 in (12:54 am)
Wind Speed7.1 mph13.8 mph (5:02 am)
Wind Gust18.4 mph (12:54 am)
Weather ElementAverage
Visibility7 mi
Wind DirectionENE (56.6 °)

Weather ElementTotal
Precipitation0.61 in
Heating Degree Days17.7 (Base 65)
Averaged from 41 records on April 16, 2013
WEATHER CONDITIONS BREAKOUT
WIND DIRECTION BREAKOUT
WEATHER BY HOUR - APRIL 16, 2013
[ °C ]   °F
Local TimeTemperatureDewpointHumidityBarometerVisibilityWind DirectionWind SpeedGust SpeedPrecipitationEventsConditions
12:54 AM50.0 °F46.0 °F86 %29.95 in10.0 miNorth (10°)12.7 mph18.4 mphOvercast
1:50 AM48.2 °F44.6 °F87 %29.98 in10.0 miNorth (360°)8.1 mph18.4 mph0.00 inRainLight Rain
1:54 AM48.9 °F44.1 °F83 %29.98 in10.0 miNorth (10°)5.8 mph0.00 inOvercast
2:54 AM48.0 °F44.1 °F86 %29.97 in10.0 miNE (50°)8.1 mph0.00 inOvercast
3:24 AM48.2 °F44.6 °F87 %30.00 in4.0 miVariable3.5 mph0.00 inRain-ThunderstormLight Rain
3:35 AM46.4 °F44.6 °F93 %30.01 in2.0 miNE (40°)3.5 mph0.10 inRain-ThunderstormHeavy Thunderstorms and Rain
3:54 AM48.0 °F45.0 °F89 %29.99 in3.0 miNNE (30°)8.1 mph0.22 inRain-ThunderstormRain
4:02 AM48.2 °F44.6 °F87 %30.01 in6.0 miCalm0.01 inRain-ThunderstormLight Rain
4:12 AM48.2 °F44.6 °F87 %29.99 in8.0 miNNE (20°)6.9 mph0.02 inRain-ThunderstormLight Rain
4:25 AM48.2 °F44.6 °F87 %30.01 in8.0 miSSE (150°)6.9 mph0.03 inRain-ThunderstormRain
4:28 AM48.2 °F44.6 °F87 %30.03 in7.0 miCalm0.04 inRain-ThunderstormRain
4:54 AM48.0 °F45.0 °F89 %30.06 in10.0 miNorth (350°)3.5 mph0.06 inRainRain
5:02 AM48.2 °F44.6 °F87 %30.00 in6.0 miNE (40°)13.8 mph0.01 inRain-ThunderstormRain
5:26 AM48.2 °F44.6 °F87 %30.07 in10.0 miNW (320°)10.4 mph0.03 inRainLight Rain
5:54 AM46.9 °F44.1 °F90 %30.04 in10.0 miNorth (10°)10.4 mph17.3 mph0.03 inOvercast
6:47 AM46.4 °F42.8 °F87 %30.06 in10.0 miNE (40°)8.1 mph0.00 inRainLight Rain
6:54 AM46.4 °F42.8 °F87 %30.07 in10.0 miNorth (10°)9.2 mphRainLight Rain
7:01 AM46.4 °F42.8 °F87 %30.07 in10.0 miNNE (20°)8.1 mph0.00 inRainLight Rain
7:54 AM46.0 °F43.0 °F89 %30.09 in10.0 miNE (50°)9.2 mph0.00 inOvercast
8:54 AM46.0 °F43.0 °F89 %30.11 in5.0 miNNE (30°)6.9 mph0.00 inRainLight Rain
9:08 AM46.4 °F42.8 °F87 %30.10 in4.0 miNE (40°)9.2 mph0.00 inRainLight Rain
9:54 AM45.0 °F42.1 °F90 %30.12 in6.0 miNNE (20°)8.1 mph0.00 inOvercast
10:29 AM44.6 °F42.8 °F93 %30.13 in3.0 miNorth (10°)8.1 mphThunderstormOvercast
10:54 AM45.0 °F42.1 °F90 %30.14 in2.5 miNNE (20°)10.4 mphThunderstormOvercast
11:54 AM45.0 °F42.1 °F90 %30.12 in3.0 miENE (60°)8.1 mph0.04 inRain-ThunderstormLight Thunderstorms and Rain
12:43 PM46.4 °F42.8 °F87 %30.12 in9.0 miNNE (30°)6.9 mph0.01 inOvercast
12:54 PM46.0 °F43.0 °F89 %30.13 in5.0 miNE (40°)6.9 mph0.01 inOvercast
1:01 PM46.4 °F42.8 °F87 %30.12 in5.0 miCalmOvercast
1:54 PM46.9 °F44.1 °F90 %30.12 in3.0 miNE (40°)5.8 mphOvercast
2:41 PM46.4 °F44.6 °F93 %30.13 in2.5 miNNE (20°)6.9 mphOvercast
2:54 PM46.9 °F44.1 °F90 %30.12 in2.0 miNE (40°)9.2 mphOvercast
3:54 PM46.9 °F44.1 °F90 %30.13 in6.0 miNE (40°)10.4 mphOvercast
4:54 PM46.9 °F44.1 °F90 %30.12 in5.0 miNE (40°)6.9 mphOvercast
5:54 PM48.0 °F45.0 °F89 %30.13 in7.0 miNE (50°)10.4 mphOvercast
6:54 PM48.0 °F45.0 °F89 %30.13 in7.0 miNNE (30°)6.9 mphOvercast
7:36 PM48.2 °F44.6 °F87 %30.14 in10.0 miNE (40°)6.9 mphOvercast
7:54 PM48.0 °F44.1 °F86 %30.15 in10.0 miNE (50°)6.9 mphOvercast
8:54 PM48.9 °F44.1 °F83 %30.15 in10.0 miNE (50°)6.9 mphOvercast
9:54 PM48.9 °F45.0 °F86 %30.16 in10.0 miNE (50°)4.6 mphOvercast
10:54 PM50.0 °F45.0 °F83 %30.14 in10.0 miNE (40°)4.6 mphOvercast
11:54 PM50.0 °F45.0 °F83 %30.13 in10.0 miENE (70°)4.6 mphOvercast
Hourly data recorded from KSUS, located miles away from St. Louis, Missouri







STORIES FROM OUR PARTNERS